Location: Ansan
(43.6898°N, 0.7731°E)
Time: 20:02:47
(UTC+00:00)

Cosmos 1766 - Pass Details

Date: 15 May 2026
Orbit: 398 x 405 km, 82.5° (Epoch: 7 June)

Event Time Altitude Azimuth Distance (km) Brightness Sun altitude
Rises 21:52:25 0° 0° (N) 2,361 7.5 -21.4°
Reaches altitude 10° 21:54:35 10° 11° (N) 1,492 6.2 -21.6°
Enters shadow 21:56:37 27° 43° (NE) 843 4.4 -21.8°
